TimeMST,TemperatureF,Dew PointF,Humidity,Sea Level PressureIn,VisibilityMPH,Wind Direction,Wind SpeedMPH,Gust SpeedMPH,PrecipitationIn,Events,Conditions,WindDirDegrees,DateUTC
12:15 AM,-0.4,-5.8,78,30.27,10.0,West,5.8,-,N/A,,Scattered Clouds,280,2013-01-22 07:15:00
12:55 AM,-4.0,-5.8,92,30.27,10.0,WNW,5.8,-,N/A,,Scattered Clouds,300,2013-01-22 07:55:00
1:15 AM,-2.2,-5.8,85,30.27,10.0,WNW,8.1,-,N/A,,Scattered Clouds,300,2013-01-22 08:15:00
1:35 AM,-0.4,-4.0,85,30.27,10.0,NW,10.4,-,N/A,,Scattered Clouds,310,2013-01-22 08:35:00
1:55 AM,1.4,-4.0,78,30.27,10.0,NW,8.1,-,N/A,,Scattered Clouds,320,2013-01-22 08:55:00
2:15 AM,-0.4,-5.8,78,30.27,10.0,NW,11.5,-,N/A,,Scattered Clouds,310,2013-01-22 09:15:00
2:35 AM,-0.4,-5.8,78,30.27,10.0,NNW,8.1,-,N/A,,Scattered Clouds,340,2013-01-22 09:35:00
2:55 AM,1.4,-5.8,72,30.27,10.0,NW,11.5,-,N/A,,Clear,310,2013-01-22 09:55:00
3:15 AM,-0.4,-5.8,78,30.27,10.0,WNW,10.4,-,N/A,,Clear,300,2013-01-22 10:15:00
3:35 AM,-2.2,-7.6,78,30.27,10.0,NW,6.9,-,N/A,,Clear,320,2013-01-22 10:35:00
3:55 AM,-4.0,-7.6,85,30.27,10.0,West,6.9,-,N/A,,Scattered Clouds,280,2013-01-22 10:55:00
4:15 AM,1.4,-4.0,78,30.27,10.0,West,8.1,-,N/A,,Scattered Clouds,280,2013-01-22 11:15:00
4:35 AM,-0.4,-5.8,78,30.27,10.0,NW,5.8,-,N/A,,Scattered Clouds,320,2013-01-22 11:35:00
4:55 AM,1.4,-4.0,78,30.27,10.0,West,8.1,-,N/A,,Scattered Clouds,280,2013-01-22 11:55:00
5:15 AM,-4.0,-7.6,85,30.26,10.0,West,9.2,-,N/A,,Scattered Clouds,280,2013-01-22 12:15:00
5:35 AM,-0.4,-5.8,78,30.26,10.0,WNW,10.4,-,N/A,,Clear,290,2013-01-22 12:35:00
5:55 AM,-0.4,-5.8,78,30.26,10.0,NW,9.2,-,N/A,,Clear,320,2013-01-22 12:55:00
6:15 AM,-4.0,-7.6,85,30.26,10.0,NW,5.8,-,N/A,,Clear,310,2013-01-22 13:15:00
6:35 AM,-4.0,-9.4,78,30.26,10.0,NW,6.9,-,N/A,,Clear,310,2013-01-22 13:35:00
6:55 AM,-4.0,-7.6,85,30.27,10.0,West,8.1,-,N/A,,Clear,260,2013-01-22 13:55:00
7:15 AM,-4.0,-7.6,85,30.27,10.0,West,10.4,-,N/A,,Clear,260,2013-01-22 14:15:00
7:35 AM,-2.2,-5.8,85,30.27,10.0,WNW,6.9,-,N/A,,Clear,300,2013-01-22 14:35:00
7:55 AM,-4.0,-7.6,85,30.27,10.0,WNW,8.1,-,N/A,,Clear,290,2013-01-22 14:55:00
8:15 AM,-2.2,-7.6,78,30.27,10.0,WNW,11.5,-,N/A,,Clear,290,2013-01-22 15:15:00
8:35 AM,-2.2,-7.6,78,30.29,10.0,NW,8.1,-,N/A,,Clear,310,2013-01-22 15:35:00
8:55 AM,-0.4,-5.8,78,30.29,10.0,WNW,5.8,-,N/A,,Clear,300,2013-01-22 15:55:00
9:15 AM,1.4,-5.8,72,30.29,10.0,NW,5.8,-,N/A,,Clear,310,2013-01-22 16:15:00
9:35 AM,5.0,-4.0,66,30.30,10.0,NNW,5.8,-,N/A,,Scattered Clouds,330,2013-01-22 16:35:00
9:55 AM,8.6,-0.4,67,30.30,10.0,NW,5.8,-,N/A,,Scattered Clouds,320,2013-01-22 16:55:00
10:15 AM,10.4,1.4,67,30.29,10.0,NW,9.2,-,N/A,,Mostly Cloudy,310,2013-01-22 17:15:00
10:35 AM,12.2,1.4,62,30.30,10.0,WNW,9.2,-,N/A,,Mostly Cloudy,300,2013-01-22 17:35:00
10:55 AM,14.0,5.0,67,30.29,10.0,WNW,5.8,-,N/A,,Mostly Cloudy,300,2013-01-22 17:55:00
11:15 AM,17.6,6.8,63,30.29,10.0,NNW,6.9,-,N/A,,Scattered Clouds,330,2013-01-22 18:15:00
11:35 AM,19.4,8.6,63,30.29,10.0,WNW,8.1,-,N/A,,Clear,300,2013-01-22 18:35:00
11:55 AM,23.0,8.6,54,30.29,10.0,WNW,10.4,-,N/A,,Clear,290,2013-01-22 18:55:00
12:15 PM,23.0,10.4,59,30.29,10.0,NW,11.5,-,N/A,,Clear,310,2013-01-22 19:15:00
12:35 PM,24.8,12.2,59,30.27,10.0,WNW,11.5,-,N/A,,Clear,300,2013-01-22 19:35:00
12:55 PM,26.6,12.2,55,30.26,10.0,West,5.8,-,N/A,,Clear,280,2013-01-22 19:55:00
1:15 PM,28.4,12.2,51,30.25,10.0,NW,8.1,-,N/A,,Clear,320,2013-01-22 20:15:00
1:35 PM,30.2,12.2,47,30.24,10.0,NNW,5.8,-,N/A,,Clear,340,2013-01-22 20:35:00
1:55 PM,32.0,14.0,48,30.24,10.0,NNW,5.8,-,N/A,,Clear,330,2013-01-22 20:55:00
2:15 PM,32.0,12.2,44,30.24,10.0,NNW,4.6,-,N/A,,Clear,330,2013-01-22 21:15:00
2:35 PM,32.0,12.2,44,30.25,10.0,NW,4.6,-,N/A,,Clear,320,2013-01-22 21:35:00
2:55 PM,33.8,14.0,44,30.25,10.0,WNW,4.6,-,N/A,,Clear,300,2013-01-22 21:55:00
3:15 PM,33.8,14.0,44,30.25,10.0,West,3.5,-,N/A,,Clear,260,2013-01-22 22:15:00
3:35 PM,28.4,15.8,59,30.25,10.0,Calm,Calm,-,N/A,,Clear,0,2013-01-22 22:35:00
3:55 PM,28.4,14.0,55,30.25,10.0,Calm,Calm,-,N/A,,Scattered Clouds,0,2013-01-22 22:55:00
4:15 PM,26.6,14.0,59,30.26,10.0,SE,4.6,-,N/A,,Scattered Clouds,130,2013-01-22 23:15:00
4:35 PM,23.0,12.2,63,30.25,10.0,East,3.5,-,N/A,,Clear,100,2013-01-22 23:35:00
4:55 PM,23.0,12.2,63,30.25,10.0,ESE,4.6,-,N/A,,Clear,120,2013-01-22 23:55:00
5:15 PM,21.2,10.4,63,30.25,10.0,East,3.5,-,N/A,,Scattered Clouds,100,2013-01-23 00:15:00
5:35 PM,19.4,10.4,68,30.25,10.0,Calm,Calm,-,N/A,,Scattered Clouds,0,2013-01-23 00:35:00
5:55 PM,17.6,8.6,68,30.26,10.0,Calm,Calm,-,N/A,,Clear,0,2013-01-23 00:55:00
6:15 PM,14.0,6.8,73,30.26,10.0,Calm,Calm,-,N/A,,Clear,0,2013-01-23 01:15:00
6:35 PM,14.0,6.8,73,30.27,10.0,Calm,Calm,-,N/A,,Clear,0,2013-01-23 01:35:00
6:55 PM,12.2,5.0,73,30.26,10.0,Calm,Calm,-,N/A,,Clear,0,2013-01-23 01:55:00
7:15 PM,8.6,3.2,79,30.26,10.0,Calm,Calm,-,N/A,,Clear,0,2013-01-23 02:15:00
7:35 PM,6.8,1.4,79,30.27,10.0,Calm,Calm,-,N/A,,Clear,0,2013-01-23 02:35:00
7:55 PM,8.6,1.4,73,30.27,10.0,Calm,Calm,-,N/A,,Scattered Clouds,0,2013-01-23 02:55:00
8:15 PM,10.4,3.2,73,30.27,10.0,Calm,Calm,-,N/A,,Clear,0,2013-01-23 03:15:00
8:35 PM,5.0,-0.4,78,30.27,10.0,Calm,Calm,-,N/A,,Clear,0,2013-01-23 03:35:00
8:55 PM,3.2,-0.4,85,30.28,10.0,Calm,Calm,-,N/A,,Clear,0,2013-01-23 03:55:00
9:15 PM,1.4,-2.2,85,30.29,10.0,WNW,3.5,-,N/A,,Clear,290,2013-01-23 04:15:00
9:35 PM,-0.4,-4.0,85,30.30,10.0,NW,6.9,-,N/A,,Clear,310,2013-01-23 04:35:00
9:55 PM,-0.4,-5.8,78,30.31,10.0,NW,6.9,-,N/A,,Clear,310,2013-01-23 04:55:00
10:15 PM,-0.4,-4.0,85,30.31,10.0,WNW,6.9,-,N/A,,Scattered Clouds,300,2013-01-23 05:15:00
10:35 PM,-0.4,-4.0,85,30.31,10.0,WNW,5.8,-,N/A,,Scattered Clouds,290,2013-01-23 05:35:00
10:55 PM,-2.2,-5.8,85,30.31,10.0,WNW,4.6,-,N/A,,Scattered Clouds,300,2013-01-23 05:55:00
11:15 PM,-2.2,-5.8,85,30.31,10.0,West,6.9,-,N/A,,Scattered Clouds,280,2013-01-23 06:15:00
11:35 PM,-0.4,-4.0,85,30.30,10.0,WNW,8.1,-,N/A,,Clear,300,2013-01-23 06:35:00
11:55 PM,-0.4,-5.8,78,30.30,10.0,NW,9.2,-,N/A,,Clear,320,2013-01-23 06:55:00